Precipitable_Water
1.27 1.27 1.24 1.23 1.22 1.27 1.30 1.30 1.30 1.28 1.27 1.27 1.24 1.27 1.24 1.24 1.22 1.17 1.14 1.16 1.16 1.16 1.15 1.12 1.11 1.09 1.15 1.17 1.21 1.25 1.30 1.40 1.49 1.56 1.61 1.68 1.74 1.88 1.89 1.92 1.89 1.87
1.27 1.26 1.26 1.25 1.24 1.25 1.28 1.31 1.31 1.27 1.22 1.23 1.28 1.30 1.30 1.29 1.29 1.24 1.18 1.11 1.08 1.08 1.10 1.10 1.11 1.12 1.13 1.13 1.12 1.10 1.13 1.20 1.25 1.42 1.45 1.53 1.57 1.61 1.67 1.78 1.88 1.90
1.31 1.26 1.25 1.25 1.24 1.22 1.24 1.28 1.27 1.24 1.20 1.17 1.18 1.21 1.24 1.28 1.26 1.24 1.20 1.15 1.08 1.06 1.08 1.14 1.16 1.16 1.16 1.16 1.14 1.11 1.08 1.04 1.06 1.20 1.33 1.38 1.48 1.54 1.60 1.67 1.75 1.84
1.34 1.29 1.27 1.26 1.25 1.22 1.23 1.20 1.17 1.15 1.13 1.12 1.13 1.14 1.14 1.14 1.16 1.16 1.17 1.16 1.12 1.09 1.09 1.11 1.13 1.16 1.17 1.18 1.16 1.13 1.11 1.08 1.05 1.06 1.10 1.25 1.36 1.45 1.51 1.57 1.61 1.77
1.35 1.31 1.30 1.26 1.23 1.22 1.18 1.13 1.10 1.08 1.07 1.10 1.12 1.11 1.08 1.06 1.04 1.06 1.08 1.10 1.10 1.08 1.09 1.09 1.10 1.10 1.12 1.13 1.14 1.10 1.09 1.08 1.10 1.09 1.03 1.04 1.19 1.36 1.50 1.56 1.55 1.59
1.31 1.28 1.27 1.24 1.21 1.18 1.14 1.10 1.08 1.05 1.05 1.05 1.06 1.09 1.07 1.06 1.04 1.03 1.04 1.03 1.06 1.08 1.07 1.06 1.06 1.08 1.09 1.08 1.07 1.06 1.05 1.04 1.09 1.12 1.10 1.05 1.06 1.17 1.36 1.49 1.52 1.52
1.21 1.20 1.18 1.19 1.16 1.14 1.09 1.08 1.06 1.05 1.04 1.05 1.06 1.02 1.05 1.04 1.03 1.03 1.03 1.02 1.04 1.06 1.05 1.04 1.04 1.04 1.07 1.06 1.03 1.02 1.04 1.05 1.08 1.10 1.09 1.11 1.09 1.04 1.10 1.25 1.40 1.46
1.16 1.15 1.13 1.12 1.08 1.05 1.03 1.00 1.00 0.99 1.00 1.01 0.98 1.00 1.04 1.03 1.03 1.05 1.04 1.03 1.02 1.03 1.04 1.06 1.06 1.06 1.07 1.06 1.05 1.05 1.05 1.08 1.08 1.09 1.09 1.11 1.13 1.04 1.00 1.02 1.08 1.16
1.13 1.10 1.08 1.04 1.01 1.00 0.98 0.97 0.97 0.94 0.93 0.89 0.90 0.94 0.99 1.02 1.04 1.05 1.05 1.05 1.03 1.04 1.06 1.06 1.08 1.07 1.07 1.06 1.09 1.08 1.06 1.07 1.07 1.07 1.05 1.05 1.06 1.05 1.00 0.98 0.95 0.99
1.06 1.04 0.98 0.95 0.92 0.91 0.89 0.90 0.90 0.88 0.86 0.85 0.86 0.90 0.91 0.97 1.02 1.04 1.05 1.05 1.05 1.05 1.07 1.08 1.07 1.08 1.09 1.12 1.13 1.14 1.10 1.07 1.07 1.07 1.06 1.05 1.04 1.03 1.02 0.99 0.94 0.90
0.94 0.91 0.86 0.85 0.85 0.83 0.81 0.81 0.82 0.83 0.83 0.84 0.85 0.85 0.89 0.92 0.96 1.02 1.03 1.05 1.05 1.06 1.06 1.06 1.09 1.10 1.11 1.12 1.15 1.16 1.14 1.11 1.09 1.08 1.07 1.06 1.05 1.04 1.04 1.03 1.00 0.94
0.85 0.82 0.80 0.80 0.80 0.77 0.77 0.79 0.82 0.84 0.85 0.87 0.89 0.87 0.89 0.92 0.94 0.98 1.02 1.03 1.06 1.08 1.10 1.11 1.11 1.11 1.11 1.11 1.12 1.14 1.14 1.14 1.12 1.10 1.08 1.07 1.05 1.05 1.04 1.05 1.03 1.02
0.78 0.77 0.78 0.76 0.77 0.78 0.80 0.82 0.84 0.86 0.86 0.86 0.90 0.90 0.90 0.91 0.95 0.97 1.02 1.04 1.05 1.09 1.11 1.12 1.13 1.12 1.11 1.10 1.10 1.11 1.12 1.11 1.10 1.08 1.08 1.08 1.08 1.07 1.07 1.07 1.07 1.06
0.75 0.78 0.78 0.78 0.80 0.81 0.81 0.83 0.84 0.85 0.86 0.88 0.90 0.89 0.89 0.91 0.93 0.95 0.99 1.03 1.05 1.08 1.11 1.12 1.11 1.09 1.08 1.08 1.08 1.08 1.09 1.08 1.09 1.09 1.07 1.07 1.09 1.10 1.10 1.08 1.07 1.07
0.72 0.75 0.76 0.77 0.77 0.76 0.76 0.77 0.80 0.82 0.85 0.87 0.88 0.90 0.92 0.94 0.96 0.96 0.96 0.99 1.04 1.05 1.05 1.06 1.06 1.05 1.06 1.05 1.05 1.07 1.08 1.06 1.07 1.09 1.10 1.08 1.08 1.10 1.12 1.09 1.06 1.04
0.73 0.74 0.74 0.76 0.75 0.73 0.74 0.76 0.78 0.81 0.83 0.85 0.87 0.89 0.92 0.95 0.96 0.98 0.98 0.98 0.97 0.98 0.99 1.00 1.01 1.03 1.05 1.06 1.06 1.06 1.03 1.03 1.05 1.07 1.09 1.10 1.09 1.07 1.06 1.06 1.04 1.01
0.71 0.71 0.73 0.74 0.77 0.78 0.77 0.76 0.78 0.82 0.85 0.87 0.89 0.90 0.92 0.95 0.96 0.96 0.97 0.97 0.96 0.94 0.94 0.95 0.96 0.97 0.99 1.00 1.02 1.02 1.02 0.99 0.99 1.04 1.08 1.08 1.07 1.02 0.98 0.98 0.99 1.01
0.66 0.67 0.68 0.71 0.75 0.73 0.74 0.75 0.77 0.80 0.84 0.87 0.89 0.90 0.93 0.95 0.95 0.97 0.99 0.99 0.98 0.97 0.96 0.96 0.97 0.99 0.97 0.96 0.96 0.97 0.99 1.00 0.99 0.98 1.01 1.02 1.02 1.01 0.99 0.97 0.96 0.98
0.62 0.60 0.61 0.67 0.70 0.71 0.72 0.71 0.72 0.75 0.79 0.83 0.85 0.91 0.93 0.91 0.91 0.94 0.97 1.00 0.98 0.95 0.93 0.94 0.95 0.98 0.97 0.97 0.96 0.97 0.97 0.99 0.99 1.00 0.99 0.98 0.97 0.97 0.96 0.97 0.98 0.97
0.60 0.60 0.59 0.66 0.70 0.70 0.70 0.69 0.70 0.72 0.77 0.81 0.84 0.86 0.85 0.84 0.85 0.85 0.91 0.95 0.94 0.93 0.91 0.92 0.92 0.92 0.91 0.91 0.90 0.92 0.92 0.91 0.91 0.95 0.98 0.99 0.97 0.96 0.95 0.96 0.98 1.00
0.62 0.62 0.60 0.66 0.67 0.68 0.68 0.69 0.70 0.72 0.73 0.75 0.77 0.77 0.77 0.75 0.76 0.76 0.79 0.85 0.86 0.84 0.80 0.80 0.82 0.83 0.82 0.78 0.75 0.80 0.83 0.83 0.85 0.87 0.90 0.92 0.96 0.97 0.95 0.95 0.97 1.00
0.63 0.62 0.59 0.63 0.64 0.65 0.66 0.67 0.70 0.70 0.68 0.71 0.71 0.74 0.77 0.78 0.78 0.78 0.75 0.76 0.79 0.76 0.73 0.71 0.74 0.75 0.73 0.68 0.64 0.68 0.71 0.69 0.72 0.75 0.78 0.83 0.86 0.90 0.93 0.94 0.95 0.97
0.63 0.60 0.57 0.61 0.61 0.61 0.64 0.67 0.67 0.67 0.69 0.71 0.68 0.70 0.71 0.72 0.73 0.74 0.76 0.74 0.73 0.72 0.70 0.70 0.73 0.74 0.69 0.62 0.61 0.65 0.68 0.65 0.65 0.67 0.69 0.73 0.77 0.82 0.87 0.91 0.92 0.94
0.62 0.60 0.60 0.62 0.62 0.62 0.64 0.67 0.69 0.70 0.69 0.71 0.67 0.66 0.65 0.65 0.67 0.69 0.71 0.71 0.69 0.68 0.70 0.66 0.69 0.74 0.71 0.63 0.61 0.64 0.67 0.64 0.63 0.62 0.63 0.64 0.69 0.76 0.83 0.88 0.92 0.94
0.62 0.62 0.66 0.64 0.65 0.64 0.66 0.65 0.65 0.65 0.67 0.67 0.65 0.64 0.62 0.60 0.60 0.61 0.66 0.69 0.70 0.70 0.71 0.70 0.71 0.71 0.71 0.66 0.63 0.64 0.66 0.66 0.63 0.61 0.61 0.63 0.66 0.70 0.76 0.80 0.86 0.90
0.62 0.63 0.69 0.66 0.66 0.65 0.65 0.63 0.63 0.63 0.62 0.60 0.60 0.60 0.58 0.55 0.55 0.56 0.57 0.61 0.66 0.68 0.69 0.70 0.71 0.70 0.71 0.66 0.64 0.65 0.66 0.68 0.66 0.62 0.60 0.62 0.66 0.70 0.72 0.78 0.82 0.86
Wind_Speed
12 13 13 13 13 13 14 14 14 15 15 15 14 14 14 14 14 14 14 14 14 14 14 14 14 14 14 13 13 13 13 13 13 13 13 13 14 14 14 14 13 13
13 14 14 14 15 15 15 15 16 16 16 16 16 16 16 16 15 15 15 16 16 16 16 16 15 15 14 14 14 14 14 14 14 14 14 14 14 14 15 15 15 14
15 15 16 16 16 16 17 17 17 17 18 18 18 18 18 18 18 17 17 17 17 17 17 17 16 16 16 15 15 15 15 15 15 15 15 15 14 15 15 15 15 15
16 17 17 17 18 18 18 19 19 19 19 19 19 19 19 19 19 19 19 19 19 19 18 18 18 17 17 17 16 16 17 17 17 17 16 16 15 15 15 15 15 15
18 18 18 19 19 20 20 20 21 21 20 20 20 21 21 21 20 20 20 20 20 20 20 20 20 19 19 19 18 18 18 18 18 18 17 17 16 16 16 15 15 15
20 20 20 20 21 21 22 22 22 22 22 22 22 22 22 22 22 21 21 21 21 21 21 21 21 21 21 21 20 20 19 19 19 18 18 18 17 17 17 16 16 16
21 21 22 22 23 23 23 23 23 23 23 23 23 23 23 23 23 23 22 22 22 22 22 22 22 21 21 21 21 21 20 19 19 19 18 18 18 18 18 18 18 18
22 23 23 24 24 24 24 24 24 24 24 24 24 24 24 24 24 24 23 23 23 23 23 22 22 22 22 22 21 21 21 20 20 19 19 19 19 19 19 19 20 20
24 25 25 25 26 26 26 26 26 26 26 26 26 26 25 25 25 25 25 24 24 24 24 23 23 23 23 22 22 21 21 21 21 21 21 21 20 20 20 20 20 21
25 26 27 27 27 27 27 27 27 27 27 27 26 26 26 26 26 26 25 25 25 25 25 24 24 24 23 23 22 22 22 22 22 22 22 22 22 22 21 21 21 21
27 27 28 28 28 28 28 28 28 27 27 26 26 26 26 26 26 26 25 25 25 25 25 24 24 24 24 24 23 23 23 23 23 23 23 23 23 22 22 22 22 22
28 28 28 28 28 28 27 27 26 26 26 26 26 26 26 26 25 25 25 25 25 25 24 24 24 24 24 24 24 24 24 24 24 24 23 23 23 23 23 23 23 23
28 28 28 28 28 27 27 26 26 26 25 25 25 25 25 25 25 25 25 25 25 25 24 24 24 24 24 25 25 25 25 25 25 25 24 24 24 24 24 24 24 24
28 28 28 28 27 26 26 26 26 26 26 26 25 25 25 25 25 25 25 25 24 24 24 24 24 24 24 25 25 25 25 25 25 25 25 25 25 24 24 24 24 24
28 28 27 27 26 26 26 26 26 26 25 25 25 25 25 25 25 25 25 25 24 24 24 24 24 24 24 24 24 24 24 25 25 25 25 25 25 25 25 24 24 25
26 26 26 26 26 25 25 25 25 25 25 24 24 24 24 24 24 24 24 24 24 24 24 24 24 24 24 24 24 24 24 24 24 24 24 25 25 25 25 25 25 25
25 25 25 24 24 24 24 24 23 23 23 23 22 22 22 22 22 22 22 22 22 22 23 23 23 24 24 25 25 25 24 24 24 24 24 24 25 25 25 25 25 25
24 24 23 23 22 22 22 22 22 21 21 21 21 21 20 20 20 20 20 20 20 21 21 21 22 23 24 25 25 25 25 25 24 24 24 24 25 25 25 25 25 25
22 22 22 21 21 21 21 21 21 20 20 20 20 19 19 19 19 19 19 19 19 20 20 21 22 23 23 24 25 25 25 25 25 25 25 25 25 25 25 25 25 25
21 21 21 20 20 21 21 20 20 20 19 19 19 19 19 18 19 19 18 18 19 19 20 21 22 23 24 24 25 25 25 26 26 26 26 26 26 26 26 26 26 26
20 21 21 20 20 21 21 20 20 19 19 19 19 19 18 18 18 18 18 18 18 19 20 20 21 22 23 24 24 24 25 25 26 26 26 26 27 27 26 27 27 27
20 21 21 20 20 21 20 20 19 19 19 19 19 18 18 18 18 18 18 18 18 19 19 19 20 20 21 22 22 22 23 23 24 25 25 26 26 26 26 26 26 26
20 21 21 20 20 20 20 19 19 19 19 19 19 19 19 18 18 18 18 18 18 19 19 19 19 20 20 20 20 20 20 21 21 22 23 24 25 25 25 25 25 25
20 20 19 19 19 19 19 19 19 18 18 19 19 19 19 19 18 18 17 18 18 18 19 19 19 19 20 20 20 19 19 19 19 20 21 22 22 23 24 24 24 24
19 19 18 18 19 19 18 18 18 18 18 18 18 18 18 18 18 17 17 18 18 18 19 19 18 19 19 19 19 19 19 18 18 18 19 19 20 20 21 22 22 23
18 18 17 18 18 18 18 17 17 17 17 17 17 17 17 17 17 17 17 18 18 18 18 18 18 18 18 19 19 18 18 17 17 17 17 18 18 18 19 19 20 21
Wind_Direction
335 334 332 330 328 324 322 320 319 319 317 315 313 310 308 307 306 305 305 304 303 302 302 301 300 299 299 297 294 292 292 290 287 285 283 282 280 278 275 272 270 268
330 330 328 326 324 322 320 317 316 314 314 312 309 306 305 303 302 302 301 301 301 300 299 298 297 296 296 295 293 291 289 289 288 286 284 283 282 280 277 274 271 268
326 326 324 323 321 320 318 315 313 311 310 308 305 304 302 300 299 298 298 299 298 298 297 295 294 293 292 292 292 291 289 288 288 286 284 282 282 282 279 276 273 270
322 321 320 319 318 317 315 313 312 309 307 305 303 302 301 299 298 296 295 295 295 295 294 292 292 291 289 289 288 288 289 288 287 285 283 281 281 280 279 276 274 271
318 317 316 315 315 314 313 312 310 308 306 304 302 301 300 299 297 295 294 293 292 292 291 290 289 288 287 287 286 285 286 286 285 284 282 280 279 278 277 275 273 271
315 314 313 312 312 311 311 310 308 306 304 302 301 299 298 297 296 294 293 291 290 290 289 288 287 286 286 285 285 285 284 283 282 281 280 279 278 276 274 273 272 271
312 312 311 310 310 310 308 307 305 304 303 301 300 298 297 296 294 294 292 291 289 289 288 287 286 285 284 284 284 284 283 281 279 278 278 277 277 275 273 272 270 270
311 310 309 309 308 308 307 305 304 302 301 300 298 297 296 295 293 292 292 290 289 288 287 287 286 285 284 283 282 281 281 280 278 277 277 276 276 274 274 272 270 269
310 310 309 309 308 307 306 304 302 301 300 298 297 296 294 293 293 291 290 289 289 288 287 286 286 285 284 282 280 279 278 278 278 277 276 275 274 274 273 272 271 270
309 309 308 308 307 306 304 303 301 299 298 297 295 294 293 292 291 290 289 288 287 287 286 286 285 284 283 282 279 278 277 277 277 276 275 274 273 273 272 271 270 269
309 308 308 307 306 304 303 302 300 299 297 296 295 294 292 291 290 289 289 288 287 286 285 285 284 283 282 281 280 278 277 276 276 275 274 273 272 272 271 270 269 268
309 308 308 307 306 305 304 303 301 299 298 297 295 294 293 292 290 289 288 287 286 285 284 284 283 283 282 282 280 279 278 276 275 274 274 273 272 271 270 269 269 268
310 309 308 307 307 306 305 304 303 301 300 299 297 295 294 293 292 290 289 287 286 284 283 283 283 283 283 282 281 279 278 277 276 275 274 273 272 270 269 268 268 268
310 309 308 308 307 306 306 305 304 303 301 300 298 296 295 294 292 290 289 287 285 284 283 283 283 283 284 283 282 280 279 278 277 275 274 272 271 271 269 268 267 267
311 311 310 310 309 308 307 306 305 303 302 300 299 297 296 294 292 290 288 286 285 284 283 283 283 283 283 283 282 282 280 278 276 275 274 272 271 271 270 268 267 267
314 314 314 313 312 311 310 309 308 306 304 303 301 300 298 295 293 292 290 287 286 284 284 284 283 284 284 284 283 283 281 278 276 274 273 273 272 271 270 269 268 267
317 317 317 317 316 315 315 314 312 311 309 307 305 304 302 300 298 295 293 290 288 287 287 286 286 286 286 285 284 283 280 278 276 275 274 273 272 272 271 270 269 268
320 320 321 321 321 321 320 320 318 316 315 313 311 309 307 305 303 300 296 293 292 291 291 290 289 290 289 287 285 283 280 277 275 274 274 273 273 272 272 271 270 269
324 324 325 324 324 324 324 323 322 321 320 318 316 314 312 310 308 305 301 297 296 296 295 293 292 292 292 290 287 284 282 278 275 274 273 273 272 272 272 271 271 270
327 327 327 326 326 327 326 326 325 324 323 322 320 318 316 314 312 309 306 302 301 301 299 295 294 294 293 292 289 285 283 280 276 274 273 273 272 272 271 270 270 270
328 328 329 328 328 328 327 326 326 326 325 324 323 322 319 315 313 312 309 306 304 304 303 299 298 298 297 295 292 288 284 281 277 274 273 273 272 271 270 270 269 270
327 328 329 328 327 328 327 327 326 326 325 324 323 323 321 318 315 313 311 309 308 308 308 307 306 306 305 302 299 294 289 284 280 276 274 273 272 271 270 269 269 268
327 328 329 329 328 329 329 328 327 326 325 323 323 323 322 320 318 315 313 311 311 312 312 312 311 312 312 310 307 302 296 290 286 281 277 275 274 271 269 268 269 268
328 329 330 331 332 332 332 330 329 328 326 324 324 323 323 322 320 319 317 316 315 315 315 314 312 312 314 314 312 309 303 297 293 288 283 281 278 274 271 269 268 269
330 331 333 334 335 335 335 334 333 332 331 330 329 327 326 325 324 322 320 319 319 319 318 316 314 314 316 316 315 313 309 303 298 294 289 287 284 280 276 272 269 269
332 334 335 336 336 338 339 339 339 339 339 339 338 336 334 332 330 329 326 323 322 322 321 321 320 320 321 321 319 317 314 310 305 300 296 292 290 287 282 278 274 272